Weather reports worldwide

Advertisment
Lamezia Terme, Italy (16362): temperature & dewpoint: 26.06.2020 07:00:00 - 02.07.2020 07:00:00 (CEST)Lamezia Terme, Italy (16362): wind speed: 26.06.2020 07:00:00 - 02.07.2020 07:00:00 (CEST)Lamezia Terme, Italy (16362): wind direction: 26.06.2020 07:00:00 - 02.07.2020 07:00:00 (CEST)Lamezia Terme, Italy (16362): reduced air pressure: 26.06.2020 07:00:00 - 02.07.2020 07:00:00 (CEST)Lamezia Terme, Italy (16362): visibility: 26.06.2020 07:00:00 - 02.07.2020 07:00:00 (CEST)Lamezia Terme, Italy (16362): precipitation: 26.06.2020 07:00:00 - 02.07.2020 07:00:00 (CEST)
Date & Time tt [°C] td [°C] ff [km/h] ff [kn] dd ppp [hPa] vv [km] rr [mm]
02.07.2020 07:00:00 22,0 22,0 5 3 E - 10 -
02.07.2020 06:00:00 21,0 21,0 4 2 - - 10 -
02.07.2020 05:00:00 21,2 20,7 2 1 - 1011,9 10 0,0
02.07.2020 04:00:00 22,0 21,0 2 1 - - 10 -
02.07.2020 03:00:00 21,0 21,0 8 4 ENE - 8 -
02.07.2020 02:00:00 21,3 21,3 2 1 - 1012,7 10 -
02.07.2020 01:00:00 22,0 22,0 4 2 - - 10 -
02.07.2020 00:00:00 22,0 22,0 4 2 E - 10 -
01.07.2020 23:00:00 23,2 22,9 5 3 S 1013,0 10 0,0
01.07.2020 22:00:00 25,0 23,0 8 4 WSW - 10 -
01.07.2020 21:00:00 24,0 23,0 13 7 W - 10 -
01.07.2020 20:00:00 26,0 22,5 8 4 SW 1012,5 10 -
01.07.2020 19:00:00 27,0 23,0 18 10 SW - 10 -
01.07.2020 18:00:00 28,0 23,0 21 11 WSW - 10 -
01.07.2020 17:00:00 27,6 22,3 22 12 SW 1013,2 10 0,0
01.07.2020 16:00:00 28,0 22,0 22 12 WSW - 10 -
01.07.2020 15:00:00 28,0 22,0 21 11 WSW - 10 -
01.07.2020 14:00:00 27,9 21,7 21 11 WSW 1013,7 10 -
01.07.2020 13:00:00 28,0 22,0 16 9 W - 10 -
01.07.2020 12:00:00 28,0 21,0 13 7 W - 10 -
01.07.2020 11:00:00 27,8 21,4 15 8 WSW 1014,5 10 0,0
01.07.2020 10:00:00 27,0 21,0 11 6 W - 10 -
01.07.2020 09:00:00 26,0 21,0 13 7 SW - 10 -
01.07.2020 08:00:00 25,2 20,6 5 3 WSW 1014,2 10 -
01.07.2020 07:00:00 22,0 21,0 2 1 - - 10 -
01.07.2020 06:00:00 21,0 19,0 2 1 - - 10 -
01.07.2020 05:00:00 20,1 20,0 4 2 ESE 1013,6 10 0,0
01.07.2020 04:00:00 19,0 19,0 2 1 - - 10 -
01.07.2020 03:00:00 20,0 19,0 2 1 - - 10 -
01.07.2020 02:00:00 21,0 20,3 2 1 N 1014,3 10 -
01.07.2020 01:00:00 21,0 20,0 2 1 - - 10 -
01.07.2020 00:00:00 21,0 21,0 2 1 - - 10 -
30.06.2020 23:00:00 21,9 21,0 4 2 W 1014,3 10 0,0
30.06.2020 22:00:00 23,0 21,0 8 4 SW - 10 -
30.06.2020 21:00:00 24,0 21,0 5 3 SSW - 10 -
30.06.2020 20:00:00 25,5 20,6 13 7 WSW 1013,8 10 -
30.06.2020 19:00:00 27,0 21,0 15 8 WSW - 10 -
30.06.2020 18:00:00 27,0 21,0 16 9 W - 10 -
30.06.2020 17:00:00 27,6 20,9 18 10 WSW 1014,1 10 0,0
30.06.2020 16:00:00 28,0 21,0 18 10 W - 10 -
30.06.2020 15:00:00 28,0 20,0 21 11 W - 10 -
30.06.2020 14:00:00 28,5 19,5 22 12 W 1014,6 10 -
30.06.2020 13:00:00 29,0 19,0 18 10 W - 10 -
30.06.2020 12:00:00 27,0 22,0 18 10 WSW - 10 -
30.06.2020 11:00:00 27,3 21,7 15 8 WSW 1015,2 10 0,0
30.06.2020 10:00:00 26,0 20,0 15 8 WSW - 10 -
30.06.2020 09:00:00 26,0 21,0 11 6 SW - 10 -
30.06.2020 08:00:00 25,2 21,0 11 6 SSW 1014,7 10 -
30.06.2020 07:00:00 23,0 21,0 11 6 SSW - 10 -
30.06.2020 06:00:00 21,0 20,0 11 6 S - 10 -
30.06.2020 05:00:00 21,3 19,4 11 6 SSW 1013,9 10 0,0
30.06.2020 04:00:00 21,0 20,0 5 3 WSW - 10 -
30.06.2020 03:00:00 22,0 20,0 9 5 S - 10 -
30.06.2020 02:00:00 21,8 19,0 2 1 - 1014,5 10 -
30.06.2020 01:00:00 23,0 21,0 8 4 S - 10 -
30.06.2020 00:00:00 23,0 21,0 11 6 SW - 10 -
29.06.2020 23:00:00 24,0 22,0 9 5 SW - 10 -
29.06.2020 22:00:00 24,0 21,0 15 8 SW - 10 -
29.06.2020 21:00:00 24,0 22,0 16 9 SW - 10 -
29.06.2020 20:00:00 25,3 21,8 16 9 SW 1013,8 10 -
29.06.2020 19:00:00 26,0 22,0 22 12 WSW - 10 -
29.06.2020 18:00:00 27,0 22,0 26 14 WSW - 10 -
29.06.2020 17:00:00 27,2 22,2 26 14 WSW 1013,7 10 0,0
29.06.2020 16:00:00 27,0 22,0 22 12 SW - 10 -
29.06.2020 15:00:00 28,0 22,0 24 13 SW - 10 -
29.06.2020 14:00:00 27,2 21,8 29 16 SW 1014,7 10 -
29.06.2020 13:00:00 28,0 22,0 26 14 WSW - 10 -
29.06.2020 12:00:00 27,0 22,0 21 11 W - 10 -
29.06.2020 11:00:00 27,2 21,9 15 8 WSW 1015,4 10 0,0
29.06.2020 10:00:00 26,0 22,0 11 6 SW - 10 -
29.06.2020 09:00:00 26,0 22,0 11 6 SW - 10 -
29.06.2020 08:00:00 23,6 21,1 2 1 - 1015,3 10 -
29.06.2020 07:00:00 20,0 20,0 4 2 - - 10 -
29.06.2020 06:00:00 19,0 18,0 8 4 E - 10 -
29.06.2020 05:00:00 18,2 17,8 5 3 E 1014,6 10 0,0
29.06.2020 04:00:00 19,0 19,0 5 3 E - 10 -
29.06.2020 03:00:00 18,0 18,0 8 4 E - 10 -
29.06.2020 02:00:00 18,6 18,6 5 3 E 1015,0 10 -
29.06.2020 01:00:00 20,0 20,0 5 3 E - 10 -
29.06.2020 00:00:00 - - - - - - - -
28.06.2020 23:00:00 21,2 20,8 2 1 - 1015,7 10 0,0
28.06.2020 22:00:00 22,0 21,0 4 2 - - 10 -
28.06.2020 21:00:00 24,0 22,0 8 4 SSW - 10 -
28.06.2020 20:00:00 25,4 21,5 8 4 SSW 1014,7 10 -
28.06.2020 19:00:00 26,0 21,0 15 8 SSW - 10 -
28.06.2020 18:00:00 28,0 21,0 15 8 SW - 10 -
28.06.2020 17:00:00 28,6 18,8 16 9 WSW 1014,9 10 0,0
28.06.2020 16:00:00 29,0 18,0 15 8 SW - 10 -
28.06.2020 15:00:00 30,0 18,0 15 8 WSW - 10 -
28.06.2020 14:00:00 29,7 16,6 15 8 W 1016,0 10 -
28.06.2020 13:00:00 30,0 18,0 13 7 WSW - 10 -
28.06.2020 12:00:00 28,0 18,0 13 7 WSW - 10 -
28.06.2020 11:00:00 28,8 17,0 11 6 SW 1016,1 10 0,0
28.06.2020 10:00:00 29,0 17,0 5 3 SSW - 10 -
28.06.2020 09:00:00 27,0 18,0 4 2 - - 10 -
28.06.2020 08:00:00 22,6 18,1 8 4 E 1015,9 10 -
28.06.2020 07:00:00 18,0 17,0 8 4 E - 10 -
28.06.2020 06:00:00 16,0 15,0 9 5 E - 10 -
28.06.2020 05:00:00 17,0 15,9 8 4 ENE 1015,5 10 0,0
28.06.2020 04:00:00 17,0 16,0 11 6 ENE - 10 -
28.06.2020 03:00:00 18,0 18,0 9 5 ENE - 10 -
28.06.2020 02:00:00 18,6 18,5 8 4 ENE 1015,6 10 -
28.06.2020 01:00:00 18,0 18,0 11 6 E - 10 -
28.06.2020 00:00:00 20,0 17,0 4 2 - - 10 -
27.06.2020 23:00:00 20,6 18,1 9 5 E 1015,7 10 0,0
27.06.2020 22:00:00 22,0 21,0 8 4 E - 10 -
27.06.2020 21:00:00 24,0 21,0 4 2 SW - 10 -
27.06.2020 20:00:00 25,9 21,3 8 4 SSW 1015,1 10 -
27.06.2020 19:00:00 27,0 22,0 13 7 SW - 10 -
27.06.2020 18:00:00 28,0 21,0 13 7 SW - 10 -
27.06.2020 17:00:00 28,3 22,2 15 8 SW 1015,1 10 0,0
27.06.2020 16:00:00 30,0 20,0 13 7 WSW - 10 -
27.06.2020 15:00:00 30,0 18,0 11 6 WSW - 10 -
27.06.2020 14:00:00 30,1 16,5 13 7 WSW 1015,2 10 -
27.06.2020 13:00:00 30,0 15,0 15 8 W - 10 -
27.06.2020 12:00:00 30,0 16,0 13 7 W - 10 -
27.06.2020 11:00:00 29,7 16,8 9 5 W 1016,2 10 0,0
27.06.2020 10:00:00 30,0 17,0 9 5 SSW - 10 -
27.06.2020 09:00:00 29,0 16,0 15 8 ENE - 10 -
27.06.2020 08:00:00 25,8 14,8 13 7 ENE 1016,6 10 -
27.06.2020 07:00:00 20,0 15,0 11 6 ENE - 10 -
27.06.2020 06:00:00 16,0 14,0 9 5 ENE - 10 -
27.06.2020 05:00:00 16,4 14,1 11 6 ENE 1016,2 10 0,0
27.06.2020 04:00:00 17,0 14,0 5 3 ENE - 10 -
27.06.2020 03:00:00 18,0 15,0 11 6 ENE - 10 -
27.06.2020 02:00:00 17,7 16,1 9 5 E 1016,1 10 -
27.06.2020 01:00:00 19,0 18,0 11 6 E - 10 -
27.06.2020 00:00:00 20,0 19,0 4 2 - - 10 -
26.06.2020 23:00:00 20,5 18,6 9 5 E 1016,5 10 0,0
26.06.2020 22:00:00 22,0 18,0 5 3 E - 10 -
26.06.2020 21:00:00 24,0 18,0 5 3 ESE - 10 -
26.06.2020 20:00:00 26,4 17,2 4 2 - 1015,9 10 -
26.06.2020 19:00:00 27,0 18,0 15 8 SSW - 10 -
26.06.2020 18:00:00 28,0 18,0 15 8 SSW - 10 -
26.06.2020 17:00:00 28,5 21,1 16 9 SSW 1016,2 10 0,0
26.06.2020 16:00:00 28,0 22,0 16 9 SSW - 10 -
26.06.2020 15:00:00 31,0 20,0 15 8 WSW - 10 -
26.06.2020 14:00:00 31,6 12,5 18 10 W 1016,8 10 -
26.06.2020 13:00:00 31,0 13,0 16 9 W - 10 -
26.06.2020 12:00:00 29,0 15,0 18 10 W - 10 -
26.06.2020 11:00:00 31,0 14,9 8 4 - 1017,4 10 0,0
26.06.2020 10:00:00 29,0 15,0 4 2 - - 10 -
26.06.2020 09:00:00 27,0 17,0 8 4 E - 10 -
26.06.2020 08:00:00 23,1 16,8 8 4 ENE 1017,8 10 -
26.06.2020 07:00:00 19,0 16,0 11 6 ENE - 10 -

tt = temperature
td = dewpoint
ff = wind speed
dd = wind direction
ppp = reduced air pressure
vv = visibility
rr = precipitation

Next stations